Weather History for Pascagoula, MS

Change the Weather History Date:

Thursday, February 20, 2014

  Actual Average Record
Temperature  
Mean Temperature 70 °F -  
Max Temperature 75 °F 65 °F 76 °F (1952)
Min Temperature 64 °F 47 °F 29 °F (1958)
Cooling Degree Days 4    
Growing Degree Days 20 (Base 50)    
Moisture  
Dew Point 67 °F    
Average Humidity 93    
Maximum Humidity 100    
Minimum Humidity 76    
Precipitation  
Precipitation 0.00 in - - ()
Sea Level Pressure  
Sea Level Pressure 29.96 in    
Wind  
Wind Speed 12 mph (SSE)    
Max Wind Speed 15 mph    
Max Gust Speed 22 mph    
Visibility 7 miles    
Events Rain    
Averages and records for this station are not official NWS values.
T = Trace of Precipitation, MM = Missing Value Source: NWS Daily Summary

Daily Weather History Graph

Daily Weather History Graph

Search for Another Location

Airport:

Trip Planner

Search our weather history database for the weather conditions in past years. The results will help you decide how hot, cold, wet, or windy it might be!

Date:

Astronomy

Feb. 20, 2014 Rise Set
Actual Time 6:29 AM CST 5:46 PM CST
Civil Twilight 6:05 AM CST 6:10 PM CST
Nautical Twilight 5:37 AM CST 6:38 PM CST
Astronomical Twilight 5:09 AM CST 7:06 PM CST
Moon 11:13 PM CST (2/20) 9:37 AM CST (2/20)
Length of Visible Light 12h 05m
Length of Day
11h 16m
Waning Gibbous, 70% of the Moon is Illuminated
Feb 20
Waning Gibbous
Feb 22
Last Quarter
Mar 1
New
Mar 8
First Quarter
Mar 16
Full

Hourly Weather History & Observations

Time (CST) Temp. Dew Point Humidity Pressure Visibility Wind Dir Wind Speed Gust Speed Precip Events Conditions
12:53 AM 66.0 °F 64.9 °F 96% 30.00 in 5.0 mi SSE 10.4 mph - N/A   Overcast
1:53 AM 64.9 °F 64.9 °F 100% 29.99 in 4.0 mi SSE 10.4 mph - N/A   Overcast
2:18 AM 64.9 °F 64.9 °F 100% 29.98 in 2.0 mi SSE 12.7 mph - N/A   Overcast
2:26 AM 64.9 °F 64.9 °F 100% 29.98 in 1.5 mi SSE 12.7 mph - N/A   Overcast
2:53 AM 64.9 °F 64.9 °F 100% 29.98 in 1.5 mi SSE 11.5 mph - N/A   Overcast
3:13 AM 64.9 °F 64.9 °F 100% 29.97 in 2.0 mi SSE 11.5 mph - N/A   Overcast
3:38 AM 64.9 °F 64.9 °F 100% 29.97 in 3.0 mi SSE 13.8 mph - N/A   Overcast
3:53 AM 64.9 °F 64.9 °F 100% 29.97 in 4.0 mi SSE 12.7 mph - N/A   Overcast
4:53 AM 66.0 °F 64.9 °F 96% 29.97 in 8.0 mi SSE 12.7 mph - N/A   Overcast
5:41 AM 66.0 °F 66.0 °F 100% 29.98 in 8.0 mi SSE 11.5 mph - N/A   Overcast
5:53 AM 66.0 °F 66.0 °F 100% 29.98 in 7.0 mi SSE 12.7 mph - 0.00 in Rain Light Rain
6:53 AM 66.9 °F 66.0 °F 97% 29.99 in 6.0 mi SSE 10.4 mph - 0.00 in   Overcast
7:12 AM 66.9 °F 66.0 °F 97% 30.00 in 4.0 mi SSE 9.2 mph - N/A   Overcast
7:25 AM 66.9 °F 66.0 °F 97% 30.00 in 1.8 mi South 12.7 mph 19.6 mph N/A   Overcast
7:53 AM 66.9 °F 66.0 °F 97% 30.00 in 2.5 mi South 11.5 mph 19.6 mph N/A   Overcast
8:00 AM 68.0 °F 66.0 °F 93% 29.99 in 4.0 mi South 12.7 mph 21.9 mph N/A   Overcast
8:32 AM 69.1 °F 66.9 °F 93% 30.01 in 8.0 mi South 10.4 mph - N/A   Overcast
8:53 AM 71.1 °F 66.9 °F 87% 30.01 in 10.0 mi South 10.4 mph - N/A   Mostly Cloudy
9:00 AM 72.0 °F 66.9 °F 84% 30.01 in 10.0 mi South 9.2 mph 17.3 mph N/A   Mostly Cloudy
9:53 AM 73.9 °F 66.9 °F 79% 30.01 in 10.0 mi South 13.8 mph - N/A   Unknown
10:53 AM 75.0 °F 66.9 °F 76% 30.01 in - SSE 11.5 mph 19.6 mph N/A   Mostly Cloudy
11:53 AM 73.9 °F 70.0 °F 87% 30.00 in 9.0 mi South 15.0 mph - N/A   Overcast
12:53 PM 73.9 °F 66.9 °F 79% 29.98 in 10.0 mi South 13.8 mph 20.7 mph N/A   Overcast
1:53 PM 73.9 °F 68.0 °F 82% 29.96 in 10.0 mi South 12.7 mph - 0.00 in Rain Light Rain
2:53 PM 73.9 °F 68.0 °F 82% 29.96 in 10.0 mi South 13.8 mph 21.9 mph 0.00 in   Overcast
3:28 PM 73.9 °F 68.0 °F 82% 29.95 in 10.0 mi South 12.7 mph - N/A   Mostly Cloudy
3:53 PM 73.0 °F 68.0 °F 84% 29.95 in 10.0 mi South 15.0 mph 21.9 mph N/A   Mostly Cloudy
4:53 PM 71.1 °F 66.9 °F 87% 29.94 in 10.0 mi SSE 11.5 mph - N/A   Overcast
5:32 PM 69.1 °F 66.9 °F 93% 29.93 in 9.0 mi SSE 11.5 mph - N/A   Overcast
5:53 PM 69.1 °F 66.9 °F 93% 29.93 in 10.0 mi SSE 12.7 mph - N/A   Overcast
6:11 PM 69.1 °F 66.9 °F 93% 29.92 in 9.0 mi SSE 11.5 mph - N/A   Overcast
6:34 PM 68.0 °F 66.9 °F 96% 29.93 in 9.0 mi SSE 10.4 mph - N/A   Overcast
6:53 PM 68.0 °F 66.9 °F 96% 29.93 in 9.0 mi SSE 10.4 mph - N/A   Overcast
7:53 PM 68.0 °F 66.9 °F 96% 29.92 in 9.0 mi SSE 13.8 mph - N/A   Overcast
8:21 PM 68.0 °F 66.9 °F 96% 29.90 in 8.0 mi SSE 15.0 mph - N/A   Overcast
8:53 PM 68.0 °F 66.9 °F 96% 29.91 in 5.0 mi SSE 11.5 mph - N/A   Overcast
9:29 PM 69.1 °F 68.0 °F 96% 29.91 in 5.0 mi South 13.8 mph 19.6 mph N/A   Overcast
9:53 PM 69.1 °F 68.0 °F 96% 29.91 in 4.0 mi South 13.8 mph 20.7 mph N/A   Overcast
10:04 PM 69.1 °F 68.0 °F 96% 29.91 in 4.0 mi SSE 10.4 mph - N/A   Overcast
10:53 PM 69.1 °F 68.0 °F 96% 29.91 in 5.0 mi South 9.2 mph - N/A   Overcast
11:04 PM 70.0 °F 68.0 °F 93% 29.90 in 6.0 mi South 10.4 mph - N/A   Overcast
11:53 PM 69.1 °F 68.0 °F 96% 29.90 in 8.0 mi South 10.4 mph 18.4 mph N/A   Overcast